Sugar Grove, IL

7:53 AM CST on December 09, 2016 (GMT -0600)
Aurora Municipal

Weather History for KARR - March, 2013

Change the Weather History Date:

Sunday, March 10, 2013

  Actual Average Record
Temperature  
Mean Temperature 43 °F 35 °F  
Max Temperature 47 °F 44 °F 62 °F (2010)
Min Temperature 38 °F 25 °F 0 °F (2003)
Degree Days  
Heating Degree Days 22 31  
Month to date heating degree days 389 326  
Since 1 July heating degree days 5218 5464  
Cooling Degree Days 0 0  
Month to date cooling degree days 0 0  
Year to date cooling degree days 0 0  
Moisture  
Dew Point 41 °F    
Average Humidity 90    
Maximum Humidity 100    
Minimum Humidity 79    
Precipitation  
Precipitation 1.06 in 0.08 in 1.06 in (2013)
Month to date precipitation 1.12 0.68  
Year to date precipitation 5.99 3.77  
Sea Level Pressure  
Sea Level Pressure 29.71 in    
Wind  
Wind Speed 9 mph (SSE)    
Max Wind Speed 17 mph    
Max Gust Speed 23 mph    
Visibility 2 miles    
Events Fog , Rain    
T = Trace of Precipitation, MM = Missing Value Source: NWS Daily Summary

Daily Weather History Graph

Daily Weather History Graph

Search for Another Location

Airport or City:

Trip Planner

Search our weather history database for the weather conditions in past years. The results will help you decide how hot, cold, wet, or windy it might be!

Date:

Astronomy

Mar. 10, 2013 Rise Set
Actual Time 7:13 AM CDT 6:55 PM CDT
Civil Twilight 6:45 AM CDT 7:22 PM CDT
Nautical Twilight 6:13 AM CDT 7:55 PM CDT
Astronomical Twilight 5:41 AM CDT 8:27 PM CDT
Moon 6:14 AM CDT (3/10) 6:02 PM CDT (3/10)
Length of Visible Light 12h 36m
Length of Day
11h 41m
Waning Crescent, 2% of the Moon is Illuminated
Mar 10
Waning Crescent
Mar 11
New
Mar 19
First Quarter
Mar 27
Full
Apr 2
Last Quarter

Hourly Weather History & Observations

Time (CDT) Temp. Windchill Dew Point Humidity Pressure Visibility Wind Dir Wind Speed Gust Speed Precip Events Conditions
12:52 AM 39.9 °F 33.4 °F 36.0 °F 86% 29.87 in 6.0 mi South 10.4 mph - 0.06 in Rain Light Rain
1:52 AM 39.0 °F 32.3 °F 37.9 °F 96% 29.85 in 5.0 mi South 10.4 mph - 0.15 in Rain Light Rain
3:52 AM 39.9 °F 32.1 °F 39.0 °F 97% 29.81 in 5.0 mi SSE 13.8 mph - 0.08 in Rain Light Rain
4:26 AM 39.2 °F 32.5 °F 39.2 °F 100% 29.79 in 2.0 mi SSE 10.4 mph - 0.03 in Rain Light Rain
4:45 AM 39.2 °F 31.6 °F 39.2 °F 100% 29.78 in 3.0 mi SSE 12.7 mph - 0.05 in Rain Light Rain
4:52 AM 39.9 °F 31.1 °F 39.9 °F 100% 29.80 in 4.0 mi South 17.3 mph 23.0 mph 0.05 in Rain Light Rain
5:09 AM 39.2 °F 31.6 °F 39.2 °F 100% 29.80 in 2.5 mi South 12.7 mph - 0.06 in Rain Rain
5:26 AM 39.2 °F 33.0 °F 39.2 °F 100% 29.80 in 2.0 mi SSE 9.2 mph - 0.14 in Rain Rain
5:33 AM 39.2 °F 32.5 °F 39.2 °F 100% 29.81 in 1.5 mi SSE 10.4 mph - 0.16 in Rain Rain
5:52 AM 39.9 °F 32.9 °F 39.9 °F 100% 29.82 in 2.0 mi SSE 11.5 mph - 0.18 in Rain Light Rain
6:07 AM 39.2 °F 32.5 °F 39.2 °F 100% 29.80 in 3.0 mi SSE 10.4 mph - 0.01 in Rain Light Rain
6:25 AM 39.2 °F 33.0 °F 39.2 °F 100% 29.79 in 2.0 mi SE 9.2 mph - 0.02 in Rain Light Rain
6:35 AM 39.2 °F 32.5 °F 39.2 °F 100% 29.78 in 1.8 mi SE 10.4 mph - 0.02 in Rain Light Rain
7:52 AM 39.9 °F 33.4 °F 39.0 °F 97% 29.78 in 3.0 mi SE 10.4 mph - 0.06 in   Mostly Cloudy
8:22 AM 39.2 °F 33.0 °F 39.2 °F 100% 29.76 in 3.0 mi SE 9.2 mph - N/A   Overcast
8:52 AM 39.9 °F 36.7 °F 39.0 °F 97% 29.81 in 4.0 mi SSE 4.6 mph - N/A   Mostly Cloudy
9:26 AM 39.2 °F - 39.2 °F 100% 29.79 in 3.0 mi Calm Calm - 0.00 in Rain Light Rain
9:52 AM 41.0 °F 35.8 °F 39.9 °F 96% 29.80 in 4.0 mi SSE 8.1 mph - 0.00 in   Mostly Cloudy
10:52 AM 41.0 °F 35.8 °F 39.9 °F 96% 29.80 in 4.0 mi SSE 8.1 mph - 0.01 in Rain Light Rain
11:47 AM 42.8 °F 39.3 °F 41.0 °F 93% 29.74 in 5.0 mi East 5.8 mph - 0.01 in   Overcast
11:52 AM 43.0 °F 39.5 °F 41.0 °F 93% 29.77 in 4.0 mi ESE 5.8 mph - 0.01 in   Overcast
12:52 PM 41.0 °F 37.1 °F 39.9 °F 96% 29.78 in 4.0 mi East 5.8 mph - 0.01 in Rain Light Rain
1:20 PM 39.2 °F 35.0 °F 39.2 °F 100% 29.76 in 1.8 mi ESE 5.8 mph - 0.04 in Rain Rain
1:31 PM 42.8 °F 40.1 °F 41.0 °F 93% 29.75 in 2.0 mi ESE 4.6 mph - 0.07 in Rain Light Rain
1:52 PM 39.9 °F - 39.9 °F 100% 29.76 in 1.5 mi Calm Calm - 0.09 in Rain Rain
2:07 PM 42.8 °F 39.3 °F 41.0 °F 93% 29.73 in 2.0 mi SE 5.8 mph - 0.03 in Rain Light Rain
2:26 PM 42.8 °F 38.6 °F 42.8 °F 100% 29.71 in 2.5 mi SE 6.9 mph - 0.04 in Rain Light Rain
2:52 PM 42.1 °F 39.2 °F 42.1 °F 100% 29.70 in 1.0 mi East 4.6 mph - 0.05 in Rain Light Rain
2:57 PM 42.8 °F 39.3 °F 41.0 °F 93% 29.68 in 0.2 mi East 5.8 mph - 0.00 in Fog , Rain Light Rain
3:52 PM 44.1 °F 40.1 °F 44.1 °F 100% 29.71 in 0.5 mi SE 6.9 mph - 0.06 in Fog , Rain Rain
4:03 PM 44.6 °F - 42.8 °F 93% 29.70 in 0.2 mi Calm Calm - 0.05 in Fog , Rain Rain
4:17 PM 39.2 °F 37.0 °F 39.2 °F 100% 29.69 in 0.2 mi NNE 3.5 mph - 0.09 in Fog , Rain Rain
4:52 PM 41.0 °F 36.4 °F 41.0 °F 100% 29.69 in 0.2 mi East 6.9 mph - 0.17 in Fog , Rain Light Rain
5:11 PM 42.8 °F 38.0 °F 42.8 °F 100% 29.66 in 0.2 mi East 8.1 mph - 0.01 in Fog , Rain Light Rain
5:52 PM 42.1 °F 37.1 °F 42.1 °F 100% 29.64 in 0.2 mi ENE 8.1 mph - 0.01 in Fog , Rain Light Rain
6:36 PM 44.6 °F 39.7 °F 44.6 °F 100% 29.61 in 1.0 mi East 9.2 mph - 0.01 in   Overcast
6:48 PM 42.8 °F 37.5 °F 42.8 °F 100% 29.60 in 2.5 mi East 9.2 mph - 0.01 in   Overcast
6:52 PM 44.1 °F 39.5 °F 43.0 °F 96% 29.62 in 2.5 mi East 8.1 mph - 0.01 in   Overcast
6:59 PM 44.6 °F 39.7 °F 44.6 °F 100% 29.60 in 4.0 mi ESE 9.2 mph - N/A   Overcast
7:25 PM 44.6 °F 38.4 °F 42.8 °F 93% 29.61 in 7.0 mi SE 12.7 mph - N/A   Overcast
7:52 PM 45.0 °F 38.9 °F 43.0 °F 93% 29.62 in 8.0 mi South 12.7 mph - N/A   Overcast
7:59 PM 44.6 °F 37.8 °F 42.8 °F 93% 29.62 in 8.0 mi South 15.0 mph - N/A   Overcast
8:21 PM 46.4 °F 39.8 °F 44.6 °F 93% 29.63 in 7.0 mi South 16.1 mph 23.0 mph N/A   Overcast
8:52 PM 43.0 °F 37.2 °F 43.0 °F 100% 29.65 in 3.0 mi South 10.4 mph - N/A   Overcast
8:58 PM 42.8 °F 37.5 °F 42.8 °F 100% 29.64 in 1.8 mi South 9.2 mph - N/A   Overcast
9:03 PM 42.8 °F 37.5 °F 42.8 °F 100% 29.64 in 0.8 mi South 9.2 mph - N/A   Overcast
9:14 PM 42.8 °F 37.5 °F 42.8 °F 100% 29.64 in 0.2 mi South 9.2 mph - N/A Fog Fog
9:24 PM 42.8 °F 37.5 °F 42.8 °F 100% 29.65 in 0.2 mi South 9.2 mph - N/A Fog Fog
9:34 PM 42.8 °F 37.5 °F 42.8 °F 100% 29.65 in 0.2 mi South 9.2 mph - N/A Fog Fog
11:52 PM 42.1 °F 37.1 °F 42.1 °F 100% 29.65 in 0.2 mi South 8.1 mph - 0.00 in Fog , Rain Light Rain
12:12 AM 42.8 °F 37.0 °F 42.8 °F 100% 29.63 in 0.5 mi SSW 10.4 mph - 0.01 in Fog Fog
12:23 AM 44.6 °F 39.2 °F 44.6 °F 100% 29.63 in 1.5 mi SSW 10.4 mph - 0.01 in   Overcast
12:32 AM 44.6 °F 38.4 °F 44.6 °F 100% 29.63 in 2.5 mi SW 12.7 mph - 0.01 in   Overcast
12:47 AM 42.8 °F 36.6 °F 42.8 °F 100% 29.63 in 0.8 mi SSW 11.5 mph - 0.01 in   Overcast
12:48 AM 43.0 °F 36.8 °F 43.0 °F 100% 29.64 in 0.8 mi SSW 11.5 mph - 0.01 in   Overcast